This is the latest recevied weather packets stored in our database for station/object SQ7IQO. If no packets are shown the sender has not sent any weather packets the latest 10 day(s).
| Time | Temp. | Humidity | Pressure | Rain* | Wind** | Luminosity | Snow |
|---|---|---|---|---|---|---|---|
| 1787827360 | 23.89° C | 47% | 1024.4 hPa | 0 mm | 0 m/s | - | - |
| 1787827300 | 23.89° C | 45% | 1024.4 hPa | 0 mm | 0 m/s | - | - |
| 1787827240 | 24.44° C | 47% | 1024.4 hPa | 0 mm | 0.45 m/s, ° | - | - |
| 1787827180 | 24.44° C | 47% | 1024.4 hPa | 0 mm | 0 m/s | - | - |
| 1787827120 | 25° C | 46% | 1024.5 hPa | 0 mm | 0 m/s | - | - |
| 1787827060 | 25° C | 44% | 1024.5 hPa | 0 mm | 0 m/s | - | - |
| 1787827000 | 24.44° C | 44% | 1024.4 hPa | 0 mm | 0 m/s | - | - |
| 1787826940 | 24.44° C | 45% | 1024.4 hPa | 0 mm | 0 m/s | - | - |
| 1787826879 | 23.89° C | 47% | 1024.5 hPa | 0 mm | 0 m/s | - | - |
| 1787826820 | 23.89° C | 50% | 1024.5 hPa | 0 mm | 0 m/s | - | - |
| 1787826760 | 23.89° C | 47% | 1024.5 hPa | 0 mm | 0 m/s | - | - |
| 1787826700 | 23.33° C | 48% | 1024.5 hPa | 0 mm | 0 m/s | - | - |
| 1787826640 | 23.33° C | 50% | 1024.5 hPa | 0 mm | 0 m/s | - | - |
| 1787826580 | 23.33° C | 50% | 1024.5 hPa | 0 mm | 0 m/s | - | - |
| 1787826520 | 22.78° C | 46% | 1024.5 hPa | 0 mm | 0.45 m/s, ° | - | - |
| 1787826460 | 22.78° C | 46% | 1024.5 hPa | 0 mm | 0 m/s | - | - |
| 1787826400 | 22.78° C | 47% | 1024.5 hPa | 0 mm | 0.45 m/s, ° | - | - |
| 1787826340 | 23.33° C | 45% | 1024.5 hPa | 0 mm | 0.45 m/s, ° | - | - |
| 1787826280 | 23.33° C | 46% | 1024.5 hPa | 0 mm | 0 m/s | - | - |
| 1787826220 | 23.33° C | 48% | 1024.5 hPa | 0 mm | 0.89 m/s, ° | - | - |
| 1787826160 | 23.33° C | 47% | 1024.5 hPa | 0 mm | 0 m/s | - | - |
| 1787826100 | 22.78° C | 47% | 1024.5 hPa | 0 mm | 0.45 m/s, ° | - | - |
| 1787826040 | 23.33° C | 47% | 1024.6 hPa | 0 mm | 0.89 m/s, ° | - | - |
| 1787825980 | 23.33° C | 46% | 1024.6 hPa | 0 mm | 0 m/s | - | - |
| 1787825920 | 22.78° C | 49% | 1024.5 hPa | 0 mm | 0 m/s | - | - |
* Rain latest hour (hover to see other rain measurements)
** Current wind speed in m/s (hover to see current wind gust speed)